HELSINKI-MALMI current weather conditions

sailwx.info

Wind from 240 at 5 knots

Air temperature 2.0° C
Visibility: greater than 5.4 NM
Dewpoint -2.0° C

Last reported at 2014-Dec-20 12:20 UTC.
Time now 2014-Dec-20 14:23 UTC

Location: N 60°15' E 025°03'.
View on Google Maps.

See reports from other nearby stations

  
Tides and Currents Weather Stations Pressure Air Temp Water Temp Dewpoint Dewpoint Depression Visibility Wind Speed Wind Dir Waves Ship Positions
date/time (UTC)wind fromknots sea level pressurealtimeterstation pressurevisibilityair tempwater tempwave heightnotes
2014-Dec-20 13:20 210 3 5.4 1.0
2014-Dec-20 12:50 230 4 5.4 1.0
2014-Dec-20 12:20 240 5 5.4 2.0
2014-Dec-20 11:50 270 7 5.4 2.0
2014-Dec-20 11:20 250 7 5.4 2.0
2014-Dec-20 10:50 230 4 5.4 2.0
2014-Dec-20 10:20 230 4 5.4 2.0
2014-Dec-20 09:50 230 5 5.4 2.0
2014-Dec-20 09:20 240 8 5.4 2.0
2014-Dec-20 08:50 230 5 5.4 2.0
2014-Dec-20 08:20 230 4 5.4 2.0
2014-Dec-20 07:50 240 7 5.4 2.0
2014-Dec-20 07:20 230 5 5.4 2.0
2014-Dec-20 06:50 240 8 5.4 2.0
2014-Dec-20 06:20 220 6 5.4 1.0
2014-Dec-20 05:50 230 6 1.0
2014-Dec-20 05:20 230 5 1.0
2014-Dec-20 04:50 230 4 1.0
2014-Dec-20 04:20 210 5 5.4 2.0
2014-Dec-20 03:50 230 6 5.4 2.0
2014-Dec-20 03:20 240 5 5.4 2.0
2014-Dec-20 02:50 240 6 5.4 2.0
2014-Dec-20 02:20 230 5 5.4 2.0
2014-Dec-20 01:50 220 3 5.4 3.0
2014-Dec-20 01:20 220 6 5.4 3.0
2014-Dec-20 00:50 220 4 2.0
2014-Dec-20 00:20 230 4 3.0
2014-Dec-19 23:50 240 6 5.4 3.0
2014-Dec-19 23:20 230 9 5.4 4.0
2014-Dec-19 22:50 230 10 5.4 4.0
2014-Dec-19 22:20 230 12 gusting 22 5.4 4.0
2014-Dec-19 21:50 230 11 gusting 20 5.4 4.0
2014-Dec-19 21:20 220 8 5.4 4.0
2014-Dec-19 20:50 220 11 gusting 20 5.4 4.0
2014-Dec-19 20:20 220 10 5.4 4.0
2014-Dec-19 19:50 220 8 5.4 4.0
2014-Dec-19 19:20 210 9 5.4 4.0
2014-Dec-19 18:50 210 8 5.4 4.0
2014-Dec-19 18:20 200 7 5.4 4.0
2014-Dec-19 17:50 220 7 5.4 4.0
2014-Dec-19 17:20 230 11 gusting 25 5.4 4.0
2014-Dec-19 16:50 220 10 5.4 4.0
2014-Dec-19 16:20 220 10 5.4 5.0 Light rain showers.
2014-Dec-19 15:50 210 8 5.4 5.0
2014-Dec-19 15:20 220 7 5.4 5.0
2014-Dec-19 14:50 210 6 3.2 5.0
2014-Dec-19 14:20 230 6 5.4 5.0
2014-Dec-19 13:50 210 6 5.4 5.0
2014-Dec-19 13:20 200 6 5.4 5.0
2014-Dec-19 12:50 200 6 5.4 5.0 Light drizzle.
2014-Dec-19 12:20 200 6 3.8 5.0 Light rain.
2014-Dec-19 11:50 200 5 2.2 5.0 Light rain. Mist.
2014-Dec-19 10:50 170 6 1.6 4.0 Light rain. Mist.
2014-Dec-19 10:20 170 6 1.6 4.0 Light rain. Mist.
2014-Dec-19 09:50 170 7 2.7 4.0 Light rain.
2014-Dec-19 09:20 170 6 2.7 3.0 Light rain.
2014-Dec-19 08:50 140 5 4.3 3.0 Light rain.
2014-Dec-19 08:20 140 6 5.4 3.0 Light rain.
2014-Dec-19 07:50 150 6 5.4 3.0 Light rain.
2014-Dec-19 07:20 140 6 5.4 3.0 Light rain.
2014-Dec-19 06:50 160 7 4.3 3.0 Light rain.
2014-Dec-19 06:20 140 7 4.9 3.0 Light rain.
2014-Dec-19 05:50 150 7 5.4 3.0 Light rain.
2014-Dec-19 05:20 160 7 4.3 3.0 Rain.
2014-Dec-19 04:50 160 9 5.4 3.0 Light rain.
2014-Dec-19 04:20 170 9 5.4 3.0 Light rain.
2014-Dec-19 03:50 170 9 5.4 4.0 Light rain.
2014-Dec-19 03:20 160 9 5.4 4.0
2014-Dec-19 02:50 170 9 3.2 4.0
2014-Dec-19 02:20 160 8 4.3 4.0
2014-Dec-19 01:50 160 7 2.7 4.0 Light rain showers.
2014-Dec-19 01:20 160 6 1.5 3.0 Light rain showers. Mist.
2014-Dec-19 00:50 170 9 5.4 3.0
2014-Dec-19 00:20 170 7 5.4 4.0
2014-Dec-18 23:50 170 8 5.4 4.0
2014-Dec-18 23:20 180 9 5.4 4.0
2014-Dec-18 22:50 190 9 5.4 4.0 Drizzle.
2014-Dec-18 22:20 210 6 1.7 4.0 Rain.
2014-Dec-18 21:50 200 8 2.7 4.0 Rain.
2014-Dec-18 21:20 200 10 2.5 4.0 Rain.
2014-Dec-18 20:50 200 9 3.2 4.0 Rain showers.
2014-Dec-18 20:20 180 8 3.2 4.0 Light rain showers.
2014-Dec-18 19:50 180 10 5.4 3.0
2014-Dec-18 19:20 180 11 5.4 3.0 Light rain showers.
2014-Dec-18 18:50 180 10 5.4 3.0 Drizzle.
2014-Dec-18 18:20 170 9 4.3 3.0 Drizzle.
2014-Dec-18 17:50 180 11 3.2 2.0 Rain snow.
2014-Dec-18 17:20 170 9 3.2 2.0 Rain snow.
2014-Dec-18 16:50 150 7 4.3 1.0 Light rain snow.
2014-Dec-18 16:20 160 9 5.4 2.0 Light rain.
2014-Dec-18 15:50 160 7 5.4 2.0 Light rain.
2014-Dec-18 15:20 150 7 5.4 2.0
2014-Dec-18 14:50 180 7 5.4 2.0
2014-Dec-18 14:20 180 8 5.4 2.0